| time (UTC) | temp C | wind direction | speed KPH | gust KPH | rain 1hr cm | rain 24hr cm | rain mn cm | humidity % | barometer mb |
| 20260504050335 | 7 | 213 | 0.0 | 1.6 | 0.00 | 0.00 | 0.00 | 68 | 1012.6 |
| 20260504045153 | 7 | 195 | 1.6 | 1.6 | 0.00 | 0.00 | 0.00 | 65 | 1012.6 |
| 20260504044007 | 8 | 225 | 1.6 | 3.2 | 0.00 | 0.00 | 0.00 | 61 | 1012.5 |
| 20260504042720 | 8 | 222 | 3.2 | 4.8 | 0.00 | 0.00 | 0.00 | 60 | 1012.4 |
| 20260504041536 | 8 | 214 | 3.2 | 3.2 | 0.00 | 0.00 | 0.00 | 60 | 1012.3 |
| 20260504040413 | 8 | 217 | 1.6 | 3.2 | 0.00 | 0.00 | 0.00 | 60 | 1012.4 |
| 20260504035209 | 8 | 217 | 1.6 | 1.6 | 0.00 | 0.00 | 0.00 | 60 | 1012.3 |
| 20260504033920 | 8 | 222 | 1.6 | 3.2 | 0.00 | 0.00 | 0.00 | 60 | 1012.2 |
| 20260504032757 | 8 | 226 | 3.2 | 3.2 | 0.00 | 0.00 | 0.00 | 59 | 1012.2 |
| 20260504031552 | 9 | 221 | 3.2 | 3.2 | 0.00 | 0.00 | 0.00 | 59 | 1012.1 |
| 20260504030411 | 10 | 246 | 3.2 | 3.2 | 0.00 | 0.00 | 0.00 | 56 | 1012.2 |
| 20260504025119 | 10 | 215 | 1.6 | 1.6 | 0.00 | 0.00 | 0.00 | 55 | 1012.2 |
| 20260504024033 | 10 | 226 | 1.6 | 1.6 | 0.00 | 0.00 | 0.00 | 54 | 1012.1 |
| 20260504022828 | 10 | 226 | 3.2 | 4.8 | 0.00 | 0.00 | 0.00 | 53 | 1012.2 |
| 20260504021552 | 10 | 237 | 3.2 | 3.2 | 0.00 | 0.00 | 0.00 | 52 | 1012.1 |
| 20260504020353 | 11 | 208 | 1.6 | 3.2 | 0.00 | 0.00 | 0.00 | 52 | 1012.1 |
| 20260504015217 | 11 | 217 | 4.8 | 8.0 | 0.00 | 0.00 | 0.00 | 52 | 1011.9 |
| 20260504013952 | 11 | 229 | 3.2 | 4.8 | 0.00 | 0.00 | 0.00 | 52 | 1012.0 |
| 20260504012809 | 11 | 218 | 3.2 | 8.0 | 0.00 | 0.00 | 0.00 | 51 | 1011.8 |
| 20260504011521 | 11 | 232 | 3.2 | 4.8 | 0.00 | 0.00 | 0.00 | 50 | 1011.8 |
| 20260504010320 | 12 | 234 | 3.2 | 8.0 | 0.00 | 0.00 | 0.00 | 48 | 1011.7 |
| 20260504005133 | 12 | 238 | 4.8 | 8.0 | 0.00 | 0.00 | 0.00 | 47 | 1011.6 |
| 20260504003953 | 12 | 217 | 3.2 | 4.8 | 0.00 | 0.00 | 0.00 | 47 | 1011.6 |
| 20260504002812 | 12 | 220 | 3.2 | 4.8 | 0.00 | 0.00 | 0.00 | 45 | 1011.4 |
| 20260504001609 | 13 | 217 | 1.6 | 3.2 | 0.00 | 0.00 | 0.00 | 43 | 1011.4 |
| 20260504000320 | 13 | 229 | 1.6 | 3.2 | 0.00 | 0.00 | 0.00 | 42 | 1011.3 |
| 20260503235120 | 14 | 271 | 6.4 | 9.7 | 0.00 | 0.00 | 0.00 | 40 | 1011.0 |
| 20260503234015 | 14 | 293 | 4.8 | 11.3 | 0.00 | 0.00 | 0.00 | 39 | 1011.0 |
| 20260503232753 | 14 | 276 | 6.4 | 9.7 | 0.00 | 0.00 | 0.00 | 39 | 1011.0 |
| 20260503231608 | 14 | 270 | 8.0 | 11.3 | 0.00 | 0.00 | 0.00 | 38 | 1011.0 |
| 20260503230321 | 14 | 238 | 6.4 | 8.0 | 0.00 | 0.00 | 0.00 | 38 | 1011.0 |
| 20260503225136 | 15 | 253 | 8.0 | 12.9 | 0.00 | 0.00 | 0.00 | 37 | 1010.9 |
| 20260503223952 | 15 | 262 | 8.0 | 16.1 | 0.00 | 0.00 | 0.00 | 36 | 1010.9 |
| 20260503222809 | 15 | 255 | 9.7 | 12.9 | 0.00 | 0.00 | 0.00 | 37 | 1010.9 |
| 20260503221522 | 15 | 307 | 6.4 | 12.9 | 0.00 | 0.00 | 0.00 | 37 | 1010.8 |
| 20260503220357 | 15 | 235 | 8.0 | 12.9 | 0.00 | 0.00 | 0.00 | 36 | 1011.0 |
| 20260503215154 | 15 | 279 | 6.4 | 12.9 | 0.00 | 0.00 | 0.00 | 37 | 1010.9 |
| 20260503214009 | 15 | 229 | 8.0 | 11.3 | 0.00 | 0.00 | 0.00 | 36 | 1010.8 |
| 20260503212742 | 16 | 243 | 8.0 | 11.3 | 0.00 | 0.00 | 0.00 | 35 | 1010.8 |
| 20260503211536 | 16 | 273 | 6.4 | 9.7 | 0.00 | 0.00 | 0.00 | 34 | 1010.6 |
| 20260503210354 | 16 | 285 | 8.0 | 11.3 | 0.00 | 0.00 | 0.00 | 34 | 1010.7 |
| 20260503205209 | 15 | 309 | 6.4 | 11.3 | 0.00 | 0.00 | 0.00 | 35 | 1010.9 |
| 20260503203921 | 15 | 252 | 6.4 | 11.3 | 0.00 | 0.00 | 0.00 | 35 | 1010.7 |
| 20260503202737 | 16 | 303 | 8.0 | 12.9 | 0.00 | 0.00 | 0.00 | 35 | 1010.9 |
| 20260503201553 | 15 | 307 | 4.8 | 8.0 | 0.00 | 0.00 | 0.00 | 35 | 1010.7 |
| 20260503200352 | 15 | 252 | 11.3 | 17.7 | 0.00 | 0.00 | 0.00 | 34 | 1010.9 |
| 20260503195209 | 15 | 315 | 8.0 | 14.5 | 0.00 | 0.00 | 0.00 | 36 | 1011.2 |
| 20260503193920 | 15 | 307 | 8.0 | 16.1 | 0.00 | 0.00 | 0.00 | 35 | 1011.2 |
| 20260503192721 | 15 | 288 | 9.7 | 12.9 | 0.00 | 0.00 | 0.00 | 36 | 1011.4 |
| 20260503191537 | 15 | 291 | 9.7 | 14.5 | 0.00 | 0.00 | 0.00 | 36 | 1011.5 |
| 20260503190354 | 15 | 301 | 8.0 | 12.9 | 0.00 | 0.00 | 0.00 | 37 | 1011.6 |
| 20260503185209 | 14 | 331 | 9.7 | 12.9 | 0.00 | 0.00 | 0.00 | 38 | 1011.7 |
| 20260503183942 | 14 | 307 | 3.2 | 4.8 | 0.00 | 0.00 | 0.00 | 36 | 1011.8 |
| 20260503182757 | 14 | 296 | 6.4 | 11.3 | 0.00 | 0.00 | 0.00 | 36 | 1011.8 |
| 20260503181554 | 13 | 304 | 4.8 | 11.3 | 0.00 | 0.00 | 0.00 | 36 | 1012.0 |
| 20260503180408 | 14 | 263 | 3.2 | 8.0 | 0.00 | 0.00 | 0.00 | 39 | 1012.1 |
| 20260503175121 | 14 | 293 | 6.4 | 9.7 | 0.00 | 0.00 | 0.00 | 37 | 1012.3 |
| 20260503173922 | 13 | 312 | 8.0 | 12.9 | 0.00 | 0.00 | 0.00 | 36 | 1012.6 |
| 20260503172735 | 13 | 268 | 9.7 | 16.1 | 0.00 | 0.00 | 0.00 | 38 | 1012.6 |
| 20260503171554 | 13 | 288 | 6.4 | 11.3 | 0.00 | 0.00 | 0.00 | 37 | 1012.9 |
| 20260503170409 | 12 | 306 | 6.4 | 12.9 | 0.00 | 0.00 | 0.00 | 39 | 1013.1 |
| 20260503150321 | 10 | 332 | 8.0 | 11.3 | 0.00 | 0.00 | 0.00 | 46 | 1014.1 |
| 20260503130353 | 7 | 309 | 3.2 | 8.0 | 0.00 | 0.00 | 0.00 | 55 | 1014.7 |
| 20260503110410 | 4 | 239 | 0.0 | 1.6 | 0.00 | 0.00 | 0.00 | 70 | 1014.3 |
| 20260503090322 | 3 | 247 | 1.6 | 3.2 | 0.00 | 0.00 | 0.00 | 70 | 1013.2 |
| 20260503081554 | 4 | 255 | 0.0 | 1.6 | 0.00 | 0.00 | 0.00 | 73 | 1013.0 |
| 20260503080355 | 4 | 0.0 | 0.0 | 0.00 | 0.00 | 0.00 | 72 | 1012.8 | |
| 20260503072759 | 5 | 11 | 0.0 | 1.6 | 0.00 | 0.00 | 0.00 | 71 | 1012.7 |
| 20260503071553 | 5 | 272 | 1.6 | 3.2 | 0.00 | 0.00 | 0.00 | 69 | 1012.6 |
| 20260503070410 | 6 | 313 | 3.2 | 3.2 | 0.00 | 0.00 | 0.00 | 67 | 1012.5 |
| 20260503053922 | 6 | 329 | 1.6 | 1.6 | 0.00 | 0.03 | 0.00 | 67 | 1012.9 |